Weather History for KTPA - March, 2012

Change the Weather History Date:

Friday, March 16, 2012

  Actual Average Record
Temperature  
Mean Temperature 76 °F 67 °F  
Max Temperature 85 °F 76 °F 91 °F (1945)
Min Temperature 66 °F 58 °F 37 °F (1916)
Degree Days  
Heating Degree Days 0 2  
Month to date heating degree days 3 38  
Since 1 July heating degree days 208 509  
Cooling Degree Days 11 4  
Month to date cooling degree days 133 58  
Year to date cooling degree days 323 171  
Growing Degree Days 25 (Base 50)    
Moisture  
Dew Point 61 °F    
Average Humidity 66    
Maximum Humidity 87    
Minimum Humidity 45    
Precipitation  
Precipitation 0.00 in 0.11 in 3.27 in (1960)
Month to date precipitation 0.14 1.55  
Year to date precipitation 3.11 6.59  
Sea Level Pressure  
Sea Level Pressure 30.20 in    
Wind  
Wind Speed 5 mph (ENE)    
Max Wind Speed 13 mph    
Max Gust Speed 21 mph    
Visibility 10 miles    
Events      
T = Trace of Precipitation, MM = Missing Value Source: NWS Daily Summary

Daily Weather History Graph

Daily Weather History Graph

Search for Another Location

Airport or City:

Trip Planner

Search our weather history database for the weather conditions in past years. The results will help you decide how hot, cold, wet, or windy it might be!

Date:

Astronomy

Mar. 16, 2012 Rise Set
Actual Time 7:38 AM EDT 7:39 PM EDT
Civil Twilight 7:14 AM EDT 8:02 PM EDT
Nautical Twilight 6:47 AM EDT 8:30 PM EDT
Astronomical Twilight 6:20 AM EDT 8:57 PM EDT
Moon 3:28 AM EDT (3/16) 2:24 PM EDT (3/16)
Length of Visible Light 12h 48m
Length of Day
12h 01m
Waning Crescent, 33% of the Moon is Illuminated
Mar 16
Waning Crescent
Mar 22
New
Mar 30
First Quarter
Apr 6
Full
Apr 13
Last Quarter

Hourly Weather History & Observations

Time (EDT) Temp. Heat Index Dew Point Humidity Pressure Visibility Wind Dir Wind Speed Gust Speed Precip Events Conditions
12:53 AM 72.0 °F - 62.1 °F 71% 30.23 in 10.0 mi East 6.9 mph - N/A   Partly Cloudy
1:53 AM 71.1 °F - 63.0 °F 75% 30.22 in 10.0 mi East 4.6 mph - N/A   Partly Cloudy
2:53 AM 70.0 °F - 63.0 °F 78% 30.20 in 10.0 mi Calm Calm - N/A   Partly Cloudy
3:53 AM 69.1 °F - 63.0 °F 81% 30.19 in 10.0 mi ENE 3.5 mph - N/A   Scattered Clouds
4:53 AM 68.0 °F - 63.0 °F 84% 30.19 in 10.0 mi Calm Calm - N/A   Partly Cloudy
5:53 AM 66.9 °F - 63.0 °F 87% 30.20 in 10.0 mi ENE 4.6 mph - N/A   Partly Cloudy
6:53 AM 66.0 °F - 62.1 °F 87% 30.22 in 10.0 mi Variable 3.5 mph - N/A   Clear
7:53 AM 66.0 °F - 63.0 °F 90% 30.23 in 10.0 mi ENE 3.5 mph - N/A   Clear
8:53 AM 70.0 °F - 63.0 °F 78% 30.24 in 10.0 mi Variable 6.9 mph - N/A   Clear
9:53 AM 73.0 °F - 63.0 °F 71% 30.25 in 10.0 mi Variable 3.5 mph - N/A   Clear
10:53 AM 78.1 °F - 61.0 °F 56% 30.26 in 10.0 mi NNE 4.6 mph - N/A   Partly Cloudy
11:53 AM 80.1 °F 80.9 °F 60.1 °F 50% 30.25 in 10.0 mi Variable 5.8 mph - N/A   Scattered Clouds
12:53 PM 80.1 °F 80.4 °F 57.0 °F 45% 30.24 in 10.0 mi Calm Calm - N/A   Mostly Cloudy
1:53 PM 80.1 °F 81.1 °F 61.0 °F 52% 30.21 in 10.0 mi WSW 9.2 mph 20.7 mph N/A   Scattered Clouds
2:53 PM 81.0 °F 81.7 °F 61.0 °F 50% 30.18 in 10.0 mi SW 8.1 mph - N/A   Scattered Clouds
3:53 PM 84.0 °F 84.5 °F 62.1 °F 47% 30.16 in 10.0 mi WSW 9.2 mph - N/A   Mostly Cloudy
4:53 PM 82.0 °F 83.0 °F 62.1 °F 51% 30.14 in 10.0 mi WSW 12.7 mph - N/A   Scattered Clouds
5:53 PM 81.0 °F 81.7 °F 61.0 °F 50% 30.13 in 10.0 mi West 9.2 mph - N/A   Scattered Clouds
6:53 PM 82.0 °F 82.7 °F 61.0 °F 49% 30.13 in 10.0 mi NW 9.2 mph - N/A   Partly Cloudy
7:53 PM 77.0 °F - 61.0 °F 58% 30.15 in 10.0 mi NNW 5.8 mph - N/A   Scattered Clouds
8:53 PM 77.0 °F - 60.1 °F 56% 30.18 in 10.0 mi Calm Calm - N/A   Mostly Cloudy
9:53 PM 77.0 °F - 59.0 °F 54% 30.21 in 10.0 mi ESE 8.1 mph - N/A   Partly Cloudy
10:53 PM 75.0 °F - 59.0 °F 57% 30.23 in 10.0 mi Variable 5.8 mph - N/A   Clear
11:53 PM 73.0 °F - 60.1 °F 64% 30.23 in 10.0 mi ESE 4.6 mph - N/A   Clear